Flag for Canada Weather past 2 weeks in Kirkland Lake, Ontario, Canada

Now
68 °F

Mostly cloudy.


Feels Like: 68 °F
Forecast: 60 / 72 °F
Wind: 12 mph from Southwest

Location: Earlton

Current Time: May 26, 2015 at 11:04:23 AM

Latest Report: May 26, 2015 at 10:00 AM


Visibility: 9 mi

Pressure: 29.87 "Hg

Humidity: 78%

Dew point: 61 °F

Location of Kirkland LakeLocation

Historic Weather in Kirkland Lake — Graph

°F

Kirkland Lake temperature yesterday

Maximum temperature yesterday: 66 °F (at 12:00 AM)
Minimum temperature yesterday: 55 °F (at 5:00 AM)
Average temperature yesterday: 60 °F

Past Weeks' High & Low Weather Summary

 TemperatureHumidityPressure
High79 °F (May 18, 4:00 PM)100% (May 11, 9:49 PM)30.43 "Hg (May 11, 9:49 PM)
Low25 °F (May 23, 4:00 AM)21% (May 14, 5:00 PM)29.61 "Hg (May 12, 2:04 AM)
Average51 °F71%30.01 "Hg
* Reported May 11 9:03 AM — May 26 9:00 AM, Kirkland Lake, Weather by CustomWeather, © 2015

Note: Actual official high and low records may vary slightly from our data, if they occured in-between our weather recording intervals... More about our weather records

Advertising

Kirkland Lake weather history for previous 24 hours

 ConditionsComfort  
Time TempWeatherWind HumidityBarometerVisibility
9:00 AM
Tue, May 26
68 °FPartly sunny.18 mph78%29.87 "Hg9 mi
8:53 AM68 °FPartly sunny.12 mph78%29.87 "Hg9 mi
8:00 AM64 °FPartly sunny.10 mph88%29.85 "Hg9 mi
7:00 AM63 °FMostly cloudy.N/A88%29.84 "Hg9 mi
6:00 AM59 °FPassing clouds.9 mph100%29.81 "Hg9 mi
5:00 AM59 °FPassing clouds.8 mph94%29.79 "Hg9 mi
4:00 AM61 °FPassing clouds.10 mph94%29.77 "Hg9 mi
3:55 AM63 °FPartly cloudy.9 mph88%29.77 "Hg9 mi
3:00 AM61 °FPartly cloudy.9 mph94%29.77 "Hg9 mi
2:00 AM61 °FMostly cloudy.12 mph94%29.76 "Hg9 mi
1:58 AM59 °FFog.12 mph100%29.76 "Hg6 mi
1:00 AM57 °FFog.6 mph100%29.75 "Hg1 mi
12:00 AM57 °FFog.7 mph100%29.76 "Hg1 mi
11:00 PM
Mon, May 25
57 °FLight rain. Fog.9 mph100%29.78 "Hg5 mi
10:58 PM57 °FLight rain. Fog.9 mph100%29.78 "Hg5 mi
10:01 PM57 °FLight rain. Fog.12 mph100%29.79 "Hg3 mi
9:00 PM59 °FLight rain. Low clouds.14 mph94%29.80 "Hg7 mi
8:00 PM59 °FLight rain. Fog.12 mph94%29.84 "Hg5 mi
7:02 PM59 °FHeavy rain. Fog.9 mph94%29.88 "Hg2 mi
6:00 PM59 °FLight rain. Fog.12 mph94%29.91 "Hg6 mi
5:00 PM59 °FLight rain. Mostly cloudy.17 mph94%29.91 "Hg9 mi
4:00 PM59 °FLight rain. Cloudy.12 mph94%29.94 "Hg8 mi
3:56 PM59 °FLight rain. Mostly cloudy.14 mph94%29.94 "Hg8 mi
3:04 PM61 °FLight rain. Mostly cloudy.12 mph94%29.96 "Hg8 mi
2:00 PM61 °FLight rain. Mostly cloudy.12 mph88%29.98 "Hg9 mi
1:00 PM63 °FLight rain. Broken clouds.12 mph77%29.99 "Hg9 mi
12:55 PM63 °FLight rain. Partly sunny.10 mph77%29.99 "Hg9 mi
12:00 PM63 °FOvercast.12 mph73%30.01 "Hg9 mi
11:00 AM63 °FOvercast.8 mph68%30.01 "Hg9 mi
Weather by CustomWeather, © 2015

See weather overviewHow to use our weather pages